Weather History for KYIP - April, 2014

Change the Weather History Date:

Tuesday, April 1, 2014

  Actual Average Record
Temperature  
Mean Temperature 53 °F -  
Max Temperature 63 °F 52 °F 77 °F (1986)
Min Temperature 42 °F 35 °F 22 °F (1987)
Degree Days  
Heating Degree Days 12    
Growing Degree Days 3 (Base 50)    
Moisture  
Dew Point 32 °F    
Average Humidity 48    
Maximum Humidity 66    
Minimum Humidity 35    
Precipitation  
Precipitation 0.01 in - - ()
Sea Level Pressure  
Sea Level Pressure 29.86 in    
Wind  
Wind Speed 12 mph (SW)    
Max Wind Speed 34 mph    
Max Gust Speed 47 mph    
Visibility 10 miles    
Events Rain    
Averages and records for this station are not official NWS values.
T = Trace of Precipitation, MM = Missing Value Source: NWS Daily Summary

Daily Weather History Graph

Daily Weather History Graph

Search for Another Location

Airport or City:

Trip Planner

Search our weather history database for the weather conditions in past years. The results will help you decide how hot, cold, wet, or windy it might be!

Date:

Astronomy

Apr. 01, 2014 Rise Set
Actual Time 7:16 AM EDT 7:59 PM EDT
Civil Twilight 6:48 AM EDT 8:28 PM EDT
Nautical Twilight 6:14 AM EDT 9:01 PM EDT
Astronomical Twilight 5:40 AM EDT 9:36 PM EDT
Moon 8:16 AM EDT (4/1) 10:24 PM EDT (4/1)
Length of Visible Light 13h 39m
Length of Day
12h 43m
Waxing Crescent, 4% of the Moon is Illuminated
Apr 1
Waxing Crescent
Apr 7
First Quarter
Apr 15
Full
Apr 22
Last Quarter
Apr 29
New

Hourly Weather History & Observations

Time (EDT) Temp. Windchill Dew Point Humidity Pressure Visibility Wind Dir Wind Speed Gust Speed Precip Events Conditions
12:53 AM 44.1 °F 41.5 °F 23.0 °F 43% 29.99 in 10.0 mi East 4.6 mph - N/A   Clear
1:53 AM 45.0 °F 41.2 °F 25.0 °F 46% 29.97 in 10.0 mi East 6.9 mph - N/A   Overcast
2:53 AM 44.1 °F 39.5 °F 28.0 °F 53% 29.97 in 10.0 mi East 8.1 mph - 0.00 in   Overcast
3:53 AM 43.0 °F - 28.9 °F 58% 29.94 in 10.0 mi Calm Calm - 0.00 in   Mostly Cloudy
4:53 AM 45.0 °F - 28.9 °F 53% 29.92 in 10.0 mi Calm Calm - N/A   Scattered Clouds
5:53 AM 46.0 °F 41.4 °F 35.1 °F 66% 29.89 in 10.0 mi SSE 9.2 mph - 0.00 in Rain Light Rain
6:53 AM 48.0 °F - 36.0 °F 63% 29.84 in 10.0 mi SE 11.5 mph - 0.01 in   Overcast
7:53 AM 48.0 °F - 37.0 °F 66% 29.81 in 10.0 mi SE 17.3 mph 21.9 mph N/A   Overcast
8:53 AM 52.0 °F - 37.9 °F 59% 29.80 in 10.0 mi SSE 13.8 mph - N/A   Overcast
9:53 AM 55.0 °F - 37.9 °F 53% 29.78 in 10.0 mi South 15.0 mph - N/A   Overcast
10:53 AM 63.0 °F - 39.0 °F 41% 29.75 in 10.0 mi SSW 15.0 mph - N/A   Mostly Cloudy
11:53 AM 63.0 °F - 41.0 °F 45% 29.73 in 10.0 mi SW 20.7 mph 36.8 mph N/A   Mostly Cloudy
12:53 PM 63.0 °F - 35.1 °F 35% 29.72 in 10.0 mi WSW 34.5 mph 47.2 mph N/A   Mostly Cloudy
1:53 PM 62.1 °F - 34.0 °F 35% 29.75 in 10.0 mi SW 29.9 mph 36.8 mph N/A   Mostly Cloudy
2:53 PM 57.9 °F - 32.0 °F 37% 29.77 in 10.0 mi WSW 28.8 mph 34.5 mph N/A   Mostly Cloudy
3:53 PM 57.9 °F - 32.0 °F 37% 29.78 in 10.0 mi WSW 24.2 mph 36.8 mph N/A   Scattered Clouds
4:53 PM 57.0 °F - 30.9 °F 37% 29.80 in 10.0 mi WSW 25.3 mph 40.3 mph N/A   Scattered Clouds
5:53 PM 54.0 °F - 30.0 °F 40% 29.83 in 10.0 mi WSW 24.2 mph 35.7 mph N/A   Scattered Clouds
6:53 PM 52.0 °F - 28.9 °F 41% 29.87 in 10.0 mi West 21.9 mph 35.7 mph N/A   Partly Cloudy
8:53 PM 48.2 °F - 28.4 °F 46% 29.94 in 10.0 mi West 18.4 mph 25.3 mph N/A   Clear
9:53 PM 44.6 °F 38.1 °F 28.4 °F 53% 29.97 in 10.0 mi West 13.8 mph 24.2 mph N/A   Clear
10:53 PM 44.6 °F 37.8 °F 26.6 °F 49% 30.00 in 10.0 mi West 15.0 mph 25.3 mph N/A   Clear
11:53 PM 42.8 °F 36.6 °F 26.6 °F 53% 30.02 in 10.0 mi West 11.5 mph - N/A   Clear